This demonstration page uses our WeatherBlox Daily Observations layout. Learn more.

Left ArrowRight Arrow

Hourly Observations for January 8, 2021

Temp ( °F °C ) Dew Point ( °F °C ) Humidity (%) Winds ( mph kmh ) Pressure ( in mb ) Visibility ( mi km ) Precip ( " mm )
12:20 am 00:20 Mostly Cloudy with Freezing Fog 28 -2.2 27 -2.8 96 96 Calm 30.48 1032 1 1 0.00 0.00
12:53 am 00:53 Mostly Cloudy with Freezing Fog 29 -1.7 28 -2.2 96 96 Calm 30.42 1030 1 1 0.00 0.00
1:53 am 01:53 Mostly Cloudy with Freezing Fog 29 -1.7 28 -2.2 96 96 WNW 3 6 30.43 1031 1 1 0.00 0.00
2:53 am 02:53 Mostly Cloudy with Freezing Fog 30 -1.1 29 -1.7 96 96 Calm 30.42 1030 1 1 0.00 0.00
3:53 am 03:53 Mostly Cloudy with Freezing Fog 30 -1.1 29 -1.7 96 96 NNW 3 6 30.42 1030 1 1 0.00 0.00
4:50 am 04:50 Mostly Cloudy with Freezing Fog 30 -1 28 -2 93 93 Calm 30.44 1031 0 0 0.00 0.00
4:53 am 04:53 Mostly Cloudy with Freezing Fog 31 -0.6 30 -1.1 96 96 Calm 30.41 1030 0 0 0.00 0.00
5:53 am 05:53 Mostly Cloudy with Freezing Fog 30 -1.1 29 -1.7 96 96 SE 5 7 30.40 1030 0 0 0.00 0.00
6:46 am 06:46 Mostly Cloudy with Freezing Fog 28 -2.2 26 -3.3 92 92 E 9 15 30.44 1031 1 1 0.00 0.00
6:53 am 06:53 Mostly Cloudy with Freezing Fog 28 -2.2 26 -3.3 92 92 E 9 15 30.40 1030 1 1 0.00 0.00
7:53 am 07:53 Mostly Cloudy with Freezing Fog 24 -4.4 22 -5.6 91 91 NE 7 11 30.42 1030 1 1 0.00 0.00
8:07 am 08:07 Mostly Cloudy with Freezing Fog 23 -5 21 -6.1 92 92 NNE 8 13 30.48 1032 0 0 0.00 0.00
8:53 am 08:53 Mostly Cloudy with Freezing Fog 22 -5.6 21 -6.1 96 96 ENE 6 9 30.45 1031 0 0 0.00 0.00
9:53 am 09:53 Mostly Cloudy with Freezing Fog 23 -5 21 -6.1 92 92 E 3 6 30.44 1031 0 0 0.00 0.00
10:53 am 10:53 Mostly Cloudy with Freezing Fog 24 -4.4 22 -5.6 91 91 ENE 8 13 30.43 1030 0 0 0.00 0.00
11:40 am 11:40 Mostly Cloudy with Freezing Fog 25 -3.9 24 -4.4 96 96 ENE 5 7 30.44 1031 1 1 0.00 0.00
11:53 am 11:53 Mostly Cloudy with Mist and Fog 26 -3.3 24 -4.4 92 92 NE 6 9 30.40 1029 1 2 0.00 0.00
12:03 pm 12:03 Cloudy with Mist and Fog 26 -3.3 25 -3.9 96 96 NE 5 7 30.43 1030 2 3 0.00 0.00
12:10 pm 12:10 Cloudy with Mist and Fog 27 -3 25 -4 93 93 NE 6 9 30.42 1030 3 5 0.00 0.00
12:18 pm 12:18 Cloudy with Mist and Fog 27 -3 25 -4 93 93 ENE 5 7 30.41 1030 3 4 0.00 0.00
12:23 pm 12:23 Cloudy with Mist and Fog 27 -2.8 25 -3.9 92 92 E 6 9 30.41 1030 1 2 0.00 0.00
12:32 pm 12:32 Cloudy with Mist and Fog 27 -2.8 26 -3.3 96 96 ENE 6 9 30.40 1030 2 3 0.00 0.00
12:42 pm 12:42 Cloudy with Mist and Fog 27 -2.8 26 -3.3 96 96 E 7 11 30.40 1030 1 2 0.00 0.00
12:50 pm 12:50 Cloudy with Freezing Fog 27 -3 27 -3 100 100 ESE 6 9 30.40 1030 1 1 0.00 0.00
12:53 pm 12:53 Cloudy with Freezing Fog 27 -2.8 26 -3.3 96 96 E 7 11 30.37 1028 0 0 0.00 0.00
1:06 pm 13:06 Mostly Cloudy with Mist and Fog 27 -2.8 25 -3.9 92 92 E 8 13 30.39 1029 1 1 0.00 0.00
1:13 pm 13:13 Cloudy with Mist and Fog 27 -2.8 26 -3.3 96 96 E 8 13 30.39 1029 2 2 0.00 0.00
1:29 pm 13:29 Cloudy with Mist and Fog 27 -2.8 26 -3.3 96 96 E 7 11 30.38 1029 1 2 0.00 0.00
1:38 pm 13:38 Cloudy with Mist and Fog 27 -2.8 26 -3.3 96 96 E 6 9 30.38 1029 2 3 0.00 0.00
1:53 pm 13:53 Cloudy with Mist and Fog 28 -2.2 27 -2.8 96 96 ENE 6 9 30.33 1027 1 2 0.00 0.00
1:59 pm 13:59 Cloudy with Freezing Fog 28 -2.2 26 -3.3 92 92 E 6 9 30.37 1028 0 0 0.00 0.00
2:53 pm 14:53 Mostly Cloudy with Freezing Fog 27 -2.8 26 -3.3 96 96 ENE 13 20 30.32 1027 0 0 0.00 0.00
3:53 pm 15:53 Mostly Cloudy with Freezing Fog 29 -1.7 28 -2.2 96 96 E 8 13 30.31 1026 0 0 0.00 0.00
4:22 pm 16:22 Mostly Cloudy with Mist and Fog 30 -1.1 29 -1.7 96 96 E 8 13 30.33 1027 1 1 0.00 0.00
4:30 pm 16:30 Cloudy with Mist and Fog 30 -1 28 -2 93 93 E 6 9 30.33 1027 1 2 0.00 0.00
4:34 pm 16:34 Cloudy with Mist and Fog 28 -2 28 -2 100 100 E 5 7 30.33 1027 2 3 0.00 0.00
4:42 pm 16:42 Mostly Cloudy 29 -1.7 27 -2.8 92 92 ENE 7 11 30.33 1027 7 11 0.00 0.00
4:53 pm 16:53 Partly Cloudy 28 -2.2 27 -2.8 96 96 ENE 9 15 30.30 1026 10 16 0.00 0.00
5:53 pm 17:53 Clear 29 -1.7 27 -2.8 92 92 E 13 20 30.30 1026 10 16 0.00 0.00
6:53 pm 18:53 Clear 28 -2.2 25 -3.9 88 88 ENE 7 11 30.31 1027 10 16 0.00 0.00
7:53 pm 19:53 Clear 23 -5 21 -6.1 92 92 NE 3 6 30.33 1027 10 16 0.00 0.00
8:53 pm 20:53 Clear 18 -7.8 16 -8.9 92 92 WSW 6 9 30.36 1028 10 16 0.00 0.00
9:53 pm 21:53 Clear 16 -8.9 14 -10 92 92 SW 6 9 30.37 1029 10 16 0.00 0.00
10:08 pm 22:08 Partly Cloudy 17 -8.3 14 -10 88 88 WSW 5 7 30.44 1031 10 16 0.00 0.00
10:38 pm 22:38 Partly Cloudy with Mist and Fog 16 -8.9 13 -10.6 88 88 S 6 9 30.46 1031 2 2 0.00 0.00
10:41 pm 22:41 Mostly Cloudy with Mist and Fog 16 -8.9 14 -10 92 92 SSE 5 7 30.46 1031 1 1 0.00 0.00
10:53 pm 22:53 Mostly Cloudy with Mist and Fog 16 -8.9 14 -10 92 92 Calm 30.39 1029 1 1 0.00 0.00
11:53 pm 23:53 Mostly Cloudy with Freezing Fog 21 -6.1 19 -7.2 92 92 Calm 30.38 1029 0 0 0.00 0.00

Powered by AerisWeather